owner,sensor,date,latitude,longitude,air_temperature,qcFlag 
DISL,ioos:station:DISL:CATA:1,2012-01-01T00:00:00Z,30.3085,-88.1395,14.3,11111222 
DISL,ioos:station:DISL:CATA:1,2012-01-01T00:30:00Z,30.3085,-88.1395,14.7,11111222 
DISL,ioos:station:DISL:CATA:1,2012-01-01T01:00:00Z,30.3085,-88.1395,14.9,11111222 
DISL,ioos:station:DISL:CATA:1,2012-01-01T01:30:00Z,30.3085,-88.1395,14.8,11111222 
DISL,ioos:station:DISL:CATA:1,2012-01-01T02:00:00Z,30.3085,-88.1395,15.1,11111222 
DISL,ioos:station:DISL:CATA:1,2012-01-01T02:30:00Z,30.3085,-88.1395,15.3,11111222 
DISL,ioos:station:DISL:CATA:1,2012-01-01T03:00:00Z,30.3085,-88.1395,15.6,11111222 
DISL,ioos:station:DISL:CATA:1,2012-01-01T03:30:00Z,30.3085,-88.1395,15.7,11111222 
DISL,ioos:station:DISL:CATA:1,2012-01-01T04:00:00Z,30.3085,-88.1395,15.6,11111222 
DISL,ioos:station:DISL:CATA:1,2012-01-01T04:30:00Z,30.3085,-88.1395,15.8,11111222 
DISL,ioos:station:DISL:CATA:1,2012-01-01T05:00:00Z,30.3085,-88.1395,15.5,11111222 
DISL,ioos:station:DISL:CATA:1,2012-01-01T05:30:00Z,30.3085,-88.1395,15.3,11111222 
DISL,ioos:station:DISL:CATA:1,2012-01-01T06:00:00Z,30.3085,-88.1395,14.9,11111222 
DISL,ioos:station:DISL:CATA:1,2012-01-01T06:30:00Z,30.3085,-88.1395,14.63,1111122 
DISL,ioos:station:DISL:CATA:1,2012-01-01T07:00:00Z,30.3085,-88.1395,14.84,1111122 
DISL,ioos:station:DISL:CATA:1,2012-01-01T07:30:00Z,30.3085,-88.1395,15.18,1111122 
DISL,ioos:station:DISL:CATA:1,2012-01-01T08:00:00Z,30.3085,-88.1395,15.49,1111122 
DISL,ioos:station:DISL:CATA:1,2012-01-01T08:30:00Z,30.3085,-88.1395,16.01,1111122 
DISL,ioos:station:DISL:CATA:1,2012-01-01T09:00:00Z,30.3085,-88.1395,16.38,1111122 
DISL,ioos:station:DISL:CATA:1,2012-01-01T09:30:00Z,30.3085,-88.1395,16.75,1111122 
DISL,ioos:station:DISL:CATA:1,2012-01-01T10:00:00Z,30.3085,-88.1395,16.95,1111122 
DISL,ioos:station:DISL:CATA:1,2012-01-01T10:30:00Z,30.3085,-88.1395,16.91,1111122 
DISL,ioos:station:DISL:CATA:1,2012-01-01T11:00:00Z,30.3085,-88.1395,16.91,1111122 
DISL,ioos:station:DISL:CATA:1,2012-01-01T11:30:00Z,30.3085,-88.1395,16.88,1111122 
DISL,ioos:station:DISL:CATA:1,2012-01-01T12:00:00Z,30.3085,-88.1395,16.33,1111122 
DISL,ioos:station:DISL:CATA:1,2012-01-01T12:30:00Z,30.3085,-88.1395,16.47,1111122 
DISL,ioos:station:DISL:CATA:1,2012-01-01T13:00:00Z,30.3085,-88.1395,16.71,1111122 
DISL,ioos:station:DISL:CATA:1,2012-01-01T13:30:00Z,30.3085,-88.1395,16.74,1111122 
DISL,ioos:station:DISL:CATA:1,2012-01-01T14:00:00Z,30.3085,-88.1395,16.5,1111122 
DISL,ioos:station:DISL:CATA:1,2012-01-01T14:30:00Z,30.3085,-88.1395,16.6,1111122 
DISL,ioos:station:DISL:CATA:1,2012-01-01T15:00:00Z,30.3085,-88.1395,16.88,1111122 
DISL,ioos:station:DISL:CATA:1,2012-01-01T15:30:00Z,30.3085,-88.1395,16.9,1111122 
DISL,ioos:station:DISL:CATA:1,2012-01-01T16:00:00Z,30.3085,-88.1395,16.89,1111122 
DISL,ioos:station:DISL:CATA:1,2012-01-01T16:30:00Z,30.3085,-88.1395,16.65,1111122 
DISL,ioos:station:DISL:CATA:1,2012-01-01T17:00:00Z,30.3085,-88.1395,17.34,1111122 
DISL,ioos:station:DISL:CATA:1,2012-01-01T17:30:00Z,30.3085,-88.1395,16.76,1111122 
DISL,ioos:station:DISL:CATA:1,2012-01-01T18:00:00Z,30.3085,-88.1395,16.59,1111122 
DISL,ioos:station:DISL:CATA:1,2012-01-01T18:30:00Z,30.3085,-88.1395,16.69,1111122 
DISL,ioos:station:DISL:CATA:1,2012-01-01T19:00:00Z,30.3085,-88.1395,16.45,1111122 
DISL,ioos:station:DISL:CATA:1,2012-01-01T19:30:00Z,30.3085,-88.1395,16.38,1111122 
DISL,ioos:station:DISL:CATA:1,2012-01-01T20:00:00Z,30.3085,-88.1395,16.41,1111122 
DISL,ioos:station:DISL:CATA:1,2012-01-01T20:30:00Z,30.3085,-88.1395,16.76,1111122 
DISL,ioos:station:DISL:CATA:1,2012-01-01T21:00:00Z,30.3085,-88.1395,17.1,1111122 
DISL,ioos:station:DISL:CATA:1,2012-01-01T21:30:00Z,30.3085,-88.1395,16.89,1111122 
DISL,ioos:station:DISL:CATA:1,2012-01-01T22:00:00Z,30.3085,-88.1395,16.72,1111122 
DISL,ioos:station:DISL:CATA:1,2012-01-01T22:30:00Z,30.3085,-88.1395,16.96,1111122 
DISL,ioos:station:DISL:CATA:1,2012-01-01T23:00:00Z,30.3085,-88.1395,16.84,1111122 
DISL,ioos:station:DISL:CATA:1,2012-01-01T23:30:00Z,30.3085,-88.1395,18.15,1111122 
DISL,ioos:station:DISL:CATA:1,2012-01-02T00:00:00Z,30.3085,-88.1395,18.04,1111122 
DISL,ioos:station:DISL:CATA:1,2012-01-02T00:30:00Z,30.3085,-88.1395,17.32,1111122 
DISL,ioos:station:DISL:CATA:1,2012-01-02T01:00:00Z,30.3085,-88.1395,16.81,1111122 
DISL,ioos:station:DISL:CATA:1,2012-01-02T01:30:00Z,30.3085,-88.1395,16.05,1111122 
DISL,ioos:station:DISL:CATA:1,2012-01-02T02:00:00Z,30.3085,-88.1395,15.34,1111122 
DISL,ioos:station:DISL:CATA:1,2012-01-02T02:30:00Z,30.3085,-88.1395,15.01,1111122 
DISL,ioos:station:DISL:CATA:1,2012-01-02T03:00:00Z,30.3085,-88.1395,14.7,1111122 
DISL,ioos:station:DISL:CATA:1,2012-01-02T03:30:00Z,30.3085,-88.1395,14.15,1111122 
DISL,ioos:station:DISL:CATA:1,2012-01-02T04:00:00Z,30.3085,-88.1395,13.57,1111122 
DISL,ioos:station:DISL:CATA:1,2012-01-02T04:30:00Z,30.3085,-88.1395,12.95,1111122 
DISL,ioos:station:DISL:CATA:1,2012-01-02T05:00:00Z,30.3085,-88.1395,12.4,1111122 
DISL,ioos:station:DISL:CATA:1,2012-01-02T05:30:00Z,30.3085,-88.1395,11.99,1111122 
DISL,ioos:station:DISL:CATA:1,2012-01-02T06:00:00Z,30.3085,-88.1395,11.52,1111122 
DISL,ioos:station:DISL:CATA:1,2012-01-02T06:30:00Z,30.3085,-88.1395,11.18,1111122 
DISL,ioos:station:DISL:CATA:1,2012-01-02T07:00:00Z,30.3085,-88.1395,10.74,1111122 
DISL,ioos:station:DISL:CATA:1,2012-01-02T07:30:00Z,30.3085,-88.1395,10.19,1111122 
DISL,ioos:station:DISL:CATA:1,2012-01-02T08:00:00Z,30.3085,-88.1395,9.74,1111122 
DISL,ioos:station:DISL:CATA:1,2012-01-02T08:30:00Z,30.3085,-88.1395,9.34,1111122 
DISL,ioos:station:DISL:CATA:1,2012-01-02T09:00:00Z,30.3085,-88.1395,9.45,1111122 
DISL,ioos:station:DISL:CATA:1,2012-01-02T09:30:00Z,30.3085,-88.1395,9.18,1111122 
DISL,ioos:station:DISL:CATA:1,2012-01-02T10:00:00Z,30.3085,-88.1395,8.7,1111122 
DISL,ioos:station:DISL:CATA:1,2012-01-02T10:30:00Z,30.3085,-88.1395,8.28,1111122 
DISL,ioos:station:DISL:CATA:1,2012-01-02T11:00:00Z,30.3085,-88.1395,7.253,1111122 
DISL,ioos:station:DISL:CATA:1,2012-01-02T11:30:00Z,30.3085,-88.1395,7.185,1111122 
DISL,ioos:station:DISL:CATA:1,2012-01-02T12:00:00Z,30.3085,-88.1395,7.223,1111122 
DISL,ioos:station:DISL:CATA:1,2012-01-02T12:30:00Z,30.3085,-88.1395,6.951,1111122 
DISL,ioos:station:DISL:CATA:1,2012-01-02T13:00:00Z,30.3085,-88.1395,6.811,1111122 
DISL,ioos:station:DISL:CATA:1,2012-01-02T13:30:00Z,30.3085,-88.1395,6.469,1111122 
DISL,ioos:station:DISL:CATA:1,2012-01-02T14:00:00Z,30.3085,-88.1395,6.74,1111122 
DISL,ioos:station:DISL:CATA:1,2012-01-02T14:30:00Z,30.3085,-88.1395,7.562,1111122 
DISL,ioos:station:DISL:CATA:1,2012-01-02T15:00:00Z,30.3085,-88.1395,7.867,1111122 
DISL,ioos:station:DISL:CATA:1,2012-01-02T15:30:00Z,30.3085,-88.1395,8.3,1111122 
DISL,ioos:station:DISL:CATA:1,2012-01-02T16:00:00Z,30.3085,-88.1395,8.61,1111122 
DISL,ioos:station:DISL:CATA:1,2012-01-02T16:30:00Z,30.3085,-88.1395,9.26,1111122 
DISL,ioos:station:DISL:CATA:1,2012-01-02T17:00:00Z,30.3085,-88.1395,9.67,1111122 
DISL,ioos:station:DISL:CATA:1,2012-01-02T17:30:00Z,30.3085,-88.1395,9.76,1111122 
DISL,ioos:station:DISL:CATA:1,2012-01-02T18:00:00Z,30.3085,-88.1395,10.45,1111122 
DISL,ioos:station:DISL:CATA:1,2012-01-02T18:30:00Z,30.3085,-88.1395,10.62,1111122 
DISL,ioos:station:DISL:CATA:1,2012-01-02T19:00:00Z,30.3085,-88.1395,11.34,1111122 
DISL,ioos:station:DISL:CATA:1,2012-01-02T19:30:00Z,30.3085,-88.1395,11.44,1111122 
DISL,ioos:station:DISL:CATA:1,2012-01-02T20:00:00Z,30.3085,-88.1395,11.89,1111122 
DISL,ioos:station:DISL:CATA:1,2012-01-02T20:30:00Z,30.3085,-88.1395,12.3,1111122 
DISL,ioos:station:DISL:CATA:1,2012-01-02T21:00:00Z,30.3085,-88.1395,12.44,1111122 
DISL,ioos:station:DISL:CATA:1,2012-01-02T21:30:00Z,30.3085,-88.1395,12.78,1111122 
DISL,ioos:station:DISL:CATA:1,2012-01-02T22:00:00Z,30.3085,-88.1395,12.75,1111122 
DISL,ioos:station:DISL:CATA:1,2012-01-02T22:30:00Z,30.3085,-88.1395,12.85,1111122 
DISL,ioos:station:DISL:CATA:1,2012-01-02T23:00:00Z,30.3085,-88.1395,12.78,1111122 
DISL,ioos:station:DISL:CATA:1,2012-01-02T23:30:00Z,30.3085,-88.1395,12.64,1111122 
DISL,ioos:station:DISL:CATA:1,2012-01-03T00:00:00Z,30.3085,-88.1395,12.57,1111122 
DISL,ioos:station:DISL:CATA:1,2012-01-03T00:30:00Z,30.3085,-88.1395,12.27,1111122 
DISL,ioos:station:DISL:CATA:1,2012-01-03T01:00:00Z,30.3085,-88.1395,11.93,1111122 
DISL,ioos:station:DISL:CATA:1,2012-01-03T01:30:00Z,30.3085,-88.1395,10.67,1111122 
DISL,ioos:station:DISL:CATA:1,2012-01-03T02:00:00Z,30.3085,-88.1395,9.67,1111122 
DISL,ioos:station:DISL:CATA:1,2012-01-03T02:30:00Z,30.3085,-88.1395,8.88,1111122 
DISL,ioos:station:DISL:CATA:1,2012-01-03T03:00:00Z,30.3085,-88.1395,8.89,1111122 
DISL,ioos:station:DISL:CATA:1,2012-01-03T03:30:00Z,30.3085,-88.1395,8.01,1111122 
DISL,ioos:station:DISL:CATA:1,2012-01-03T04:00:00Z,30.3085,-88.1395,7.493,1111122 
DISL,ioos:station:DISL:CATA:1,2012-01-03T04:30:00Z,30.3085,-88.1395,7.012,1111122 
DISL,ioos:station:DISL:CATA:1,2012-01-03T05:00:00Z,30.3085,-88.1395,6.877,1111122 
DISL,ioos:station:DISL:CATA:1,2012-01-03T05:30:00Z,30.3085,-88.1395,6.778,1111122 
DISL,ioos:station:DISL:CATA:1,2012-01-03T06:00:00Z,30.3085,-88.1395,6.468,1111122 
DISL,ioos:station:DISL:CATA:1,2012-01-03T06:30:00Z,30.3085,-88.1395,5.991,1111122 
DISL,ioos:station:DISL:CATA:1,2012-01-03T07:00:00Z,30.3085,-88.1395,5.276,1111122 
DISL,ioos:station:DISL:CATA:1,2012-01-03T07:30:00Z,30.3085,-88.1395,4.349,1111122 
DISL,ioos:station:DISL:CATA:1,2012-01-03T08:00:00Z,30.3085,-88.1395,3.834,1111122 
DISL,ioos:station:DISL:CATA:1,2012-01-03T08:30:00Z,30.3085,-88.1395,3.875,1111122 
DISL,ioos:station:DISL:CATA:1,2012-01-03T09:00:00Z,30.3085,-88.1395,3.463,1111122 
DISL,ioos:station:DISL:CATA:1,2012-01-03T09:30:00Z,30.3085,-88.1395,3.223,1111122 
DISL,ioos:station:DISL:CATA:1,2012-01-03T10:00:00Z,30.3085,-88.1395,2.919,1111122 
DISL,ioos:station:DISL:CATA:1,2012-01-03T10:30:00Z,30.3085,-88.1395,2.749,1111122 
DISL,ioos:station:DISL:CATA:1,2012-01-03T11:00:00Z,30.3085,-88.1395,2.405,1111122 
DISL,ioos:station:DISL:CATA:1,2012-01-03T11:30:00Z,30.3085,-88.1395,2.062,1111122 
DISL,ioos:station:DISL:CATA:1,2012-01-03T12:00:00Z,30.3085,-88.1395,1.581,1111122 
DISL,ioos:station:DISL:CATA:1,2012-01-03T12:30:00Z,30.3085,-88.1395,1.375,1111122 
DISL,ioos:station:DISL:CATA:1,2012-01-03T13:00:00Z,30.3085,-88.1395,0.688,1111122 
DISL,ioos:station:DISL:CATA:1,2012-01-03T13:30:00Z,30.3085,-88.1395,0.928,1111122 
DISL,ioos:station:DISL:CATA:1,2012-01-03T14:00:00Z,30.3085,-88.1395,1.237,1111122 
DISL,ioos:station:DISL:CATA:1,2012-01-03T14:30:00Z,30.3085,-88.1395,1.718,1111122 
DISL,ioos:station:DISL:CATA:1,2012-01-03T15:00:00Z,30.3085,-88.1395,2.4,1111122 
DISL,ioos:station:DISL:CATA:1,2012-01-03T15:30:00Z,30.3085,-88.1395,2.77,1111122 
DISL,ioos:station:DISL:CATA:1,2012-01-03T16:00:00Z,30.3085,-88.1395,3.215,1111122 
DISL,ioos:station:DISL:CATA:1,2012-01-03T16:30:00Z,30.3085,-88.1395,3.59,1111122 
DISL,ioos:station:DISL:CATA:1,2012-01-03T17:00:00Z,30.3085,-88.1395,4.238,1111122 
DISL,ioos:station:DISL:CATA:1,2012-01-03T17:30:00Z,30.3085,-88.1395,4.849,1111122 
DISL,ioos:station:DISL:CATA:1,2012-01-03T18:00:00Z,30.3085,-88.1395,5.227,1111122 
DISL,ioos:station:DISL:CATA:1,2012-01-03T18:30:00Z,30.3085,-88.1395,5.222,1111122 
DISL,ioos:station:DISL:CATA:1,2012-01-03T19:00:00Z,30.3085,-88.1395,6.112,1111122 
DISL,ioos:station:DISL:CATA:1,2012-01-03T19:30:00Z,30.3085,-88.1395,6.895,1111122 
DISL,ioos:station:DISL:CATA:1,2012-01-03T20:00:00Z,30.3085,-88.1395,7.408,1111122 
DISL,ioos:station:DISL:CATA:1,2012-01-03T20:30:00Z,30.3085,-88.1395,7.717,1111122 
DISL,ioos:station:DISL:CATA:1,2012-01-03T21:00:00Z,30.3085,-88.1395,7.889,1111122 
DISL,ioos:station:DISL:CATA:1,2012-01-03T21:30:00Z,30.3085,-88.1395,8.23,1111122 
DISL,ioos:station:DISL:CATA:1,2012-01-03T22:00:00Z,30.3085,-88.1395,8.47,1111122 
DISL,ioos:station:DISL:CATA:1,2012-01-03T22:30:00Z,30.3085,-88.1395,8.09,1111122 
DISL,ioos:station:DISL:CATA:1,2012-01-03T23:00:00Z,30.3085,-88.1395,7.516,1111122 
DISL,ioos:station:DISL:CATA:1,2012-01-03T23:30:00Z,30.3085,-88.1395,7.045,1111122 
DISL,ioos:station:DISL:CATA:1,2012-01-04T00:00:00Z,30.3085,-88.1395,6.463,1111122 
DISL,ioos:station:DISL:CATA:1,2012-01-04T00:30:00Z,30.3085,-88.1395,5.954,1111122 
DISL,ioos:station:DISL:CATA:1,2012-01-04T01:00:00Z,30.3085,-88.1395,5.963,1111122 
DISL,ioos:station:DISL:CATA:1,2012-01-04T01:30:00Z,30.3085,-88.1395,5.895,1111122 
DISL,ioos:station:DISL:CATA:1,2012-01-04T02:00:00Z,30.3085,-88.1395,5.757,1111122 
DISL,ioos:station:DISL:CATA:1,2012-01-04T02:30:00Z,30.3085,-88.1395,5.929,1111122 
DISL,ioos:station:DISL:CATA:1,2012-01-04T03:00:00Z,30.3085,-88.1395,6.032,1111122 
DISL,ioos:station:DISL:CATA:1,2012-01-04T03:30:00Z,30.3085,-88.1395,5.551,1111122 
DISL,ioos:station:DISL:CATA:1,2012-01-04T04:00:00Z,30.3085,-88.1395,4.625,1111122 
DISL,ioos:station:DISL:CATA:1,2012-01-04T04:30:00Z,30.3085,-88.1395,5.112,1111122 
DISL,ioos:station:DISL:CATA:1,2012-01-04T05:00:00Z,30.3085,-88.1395,5.147,1111122 
DISL,ioos:station:DISL:CATA:1,2012-01-04T05:30:00Z,30.3085,-88.1395,6.177,1111122 
DISL,ioos:station:DISL:CATA:1,2012-01-04T06:00:00Z,30.3085,-88.1395,6.04,1111122 
DISL,ioos:station:DISL:CATA:1,2012-01-04T06:30:00Z,30.3085,-88.1395,5.697,1111122 
DISL,ioos:station:DISL:CATA:1,2012-01-04T07:00:00Z,30.3085,-88.1395,4.906,1111122 
DISL,ioos:station:DISL:CATA:1,2012-01-04T07:30:00Z,30.3085,-88.1395,5.904,1111122 
DISL,ioos:station:DISL:CATA:1,2012-01-04T08:00:00Z,30.3085,-88.1395,6.626,1111122 
DISL,ioos:station:DISL:CATA:1,2012-01-04T08:30:00Z,30.3085,-88.1395,6.556,1111122 
DISL,ioos:station:DISL:CATA:1,2012-01-04T09:00:00Z,30.3085,-88.1395,6.617,1111122 
DISL,ioos:station:DISL:CATA:1,2012-01-04T09:30:00Z,30.3085,-88.1395,6.651,1111122 
DISL,ioos:station:DISL:CATA:1,2012-01-04T10:00:00Z,30.3085,-88.1395,6.857,1111122 
DISL,ioos:station:DISL:CATA:1,2012-01-04T10:30:00Z,30.3085,-88.1395,6.857,1111122 
DISL,ioos:station:DISL:CATA:1,2012-01-04T11:00:00Z,30.3085,-88.1395,6.925,1111122 
DISL,ioos:station:DISL:CATA:1,2012-01-04T11:30:00Z,30.3085,-88.1395,7.097,1111122 
DISL,ioos:station:DISL:CATA:1,2012-01-04T12:00:00Z,30.3085,-88.1395,7.063,1111122 
DISL,ioos:station:DISL:CATA:1,2012-01-04T12:30:00Z,30.3085,-88.1395,6.925,1111122 
DISL,ioos:station:DISL:CATA:1,2012-01-04T13:00:00Z,30.3085,-88.1395,7.199,1111122 
DISL,ioos:station:DISL:CATA:1,2012-01-04T13:30:00Z,30.3085,-88.1395,7.193,1111122 
DISL,ioos:station:DISL:CATA:1,2012-01-04T14:00:00Z,30.3085,-88.1395,7.496,1111122 
DISL,ioos:station:DISL:CATA:1,2012-01-04T14:30:00Z,30.3085,-88.1395,7.493,1111122 
DISL,ioos:station:DISL:CATA:1,2012-01-04T15:00:00Z,30.3085,-88.1395,7.588,1111122 
DISL,ioos:station:DISL:CATA:1,2012-01-04T15:30:00Z,30.3085,-88.1395,7.82,1111122 
DISL,ioos:station:DISL:CATA:1,2012-01-04T16:00:00Z,30.3085,-88.1395,7.889,1111122 
DISL,ioos:station:DISL:CATA:1,2012-01-04T16:30:00Z,30.3085,-88.1395,8.15,1111122 
DISL,ioos:station:DISL:CATA:1,2012-01-04T17:00:00Z,30.3085,-88.1395,8.35,1111122 
DISL,ioos:station:DISL:CATA:1,2012-01-04T17:30:00Z,30.3085,-88.1395,8.59,1111122 
DISL,ioos:station:DISL:CATA:1,2012-01-04T18:00:00Z,30.3085,-88.1395,9.25,1111122 
DISL,ioos:station:DISL:CATA:1,2012-01-04T18:30:00Z,30.3085,-88.1395,9.55,1111122 
DISL,ioos:station:DISL:CATA:1,2012-01-04T19:00:00Z,30.3085,-88.1395,10.33,1111122 
DISL,ioos:station:DISL:CATA:1,2012-01-04T19:30:00Z,30.3085,-88.1395,11.36,1111122 
DISL,ioos:station:DISL:CATA:1,2012-01-04T20:00:00Z,30.3085,-88.1395,12.42,1111122 
DISL,ioos:station:DISL:CATA:1,2012-01-04T20:30:00Z,30.3085,-88.1395,11.39,1111122 
DISL,ioos:station:DISL:CATA:1,2012-01-04T21:00:00Z,30.3085,-88.1395,15.06,1111122 
DISL,ioos:station:DISL:CATA:1,2012-01-04T21:30:00Z,30.3085,-88.1395,13.28,1111122 
DISL,ioos:station:DISL:CATA:1,2012-01-04T22:00:00Z,30.3085,-88.1395,13.24,1111122 
DISL,ioos:station:DISL:CATA:1,2012-01-04T22:30:00Z,30.3085,-88.1395,13.39,1111122 
DISL,ioos:station:DISL:CATA:1,2012-01-04T23:00:00Z,30.3085,-88.1395,12.16,1111122 
DISL,ioos:station:DISL:CATA:1,2012-01-04T23:30:00Z,30.3085,-88.1395,11.92,1111122 
DISL,ioos:station:DISL:CATA:1,2012-01-05T00:00:00Z,30.3085,-88.1395,12.34,1111122 
DISL,ioos:station:DISL:CATA:1,2012-01-05T00:30:00Z,30.3085,-88.1395,11.97,1111122 
DISL,ioos:station:DISL:CATA:1,2012-01-05T01:00:00Z,30.3085,-88.1395,12.49,1111122 
DISL,ioos:station:DISL:CATA:1,2012-01-05T01:30:00Z,30.3085,-88.1395,12.87,1111122 
DISL,ioos:station:DISL:CATA:1,2012-01-05T02:00:00Z,30.3085,-88.1395,13.03,1111122 
DISL,ioos:station:DISL:CATA:1,2012-01-05T02:30:00Z,30.3085,-88.1395,13.24,1111122 
DISL,ioos:station:DISL:CATA:1,2012-01-05T03:00:00Z,30.3085,-88.1395,13.27,1111122 
DISL,ioos:station:DISL:CATA:1,2012-01-05T03:30:00Z,30.3085,-88.1395,13.34,1111122 
DISL,ioos:station:DISL:CATA:1,2012-01-05T04:00:00Z,30.3085,-88.1395,13.26,1111122 
DISL,ioos:station:DISL:CATA:1,2012-01-05T04:30:00Z,30.3085,-88.1395,13.13,1111122 
DISL,ioos:station:DISL:CATA:1,2012-01-05T05:00:00Z,30.3085,-88.1395,12.99,1111122 
DISL,ioos:station:DISL:CATA:1,2012-01-05T05:30:00Z,30.3085,-88.1395,12.23,1111122 
DISL,ioos:station:DISL:CATA:1,2012-01-05T06:00:00Z,30.3085,-88.1395,12.2,1111122 
DISL,ioos:station:DISL:CATA:1,2012-01-05T06:30:00Z,30.3085,-88.1395,12.04,1111122 
DISL,ioos:station:DISL:CATA:1,2012-01-05T07:00:00Z,30.3085,-88.1395,11.66,1111122 
DISL,ioos:station:DISL:CATA:1,2012-01-05T07:30:00Z,30.3085,-88.1395,11.73,1111122 
DISL,ioos:station:DISL:CATA:1,2012-01-05T08:00:00Z,30.3085,-88.1395,11.6,1111122 
DISL,ioos:station:DISL:CATA:1,2012-01-05T08:30:00Z,30.3085,-88.1395,11.53,1111122 
DISL,ioos:station:DISL:CATA:1,2012-01-05T09:00:00Z,30.3085,-88.1395,11.91,1111122 
DISL,ioos:station:DISL:CATA:1,2012-01-05T09:30:00Z,30.3085,-88.1395,12.01,1111122 
DISL,ioos:station:DISL:CATA:1,2012-01-05T10:00:00Z,30.3085,-88.1395,11.8,1111122 
DISL,ioos:station:DISL:CATA:1,2012-01-05T10:30:00Z,30.3085,-88.1395,11.91,1111122 
DISL,ioos:station:DISL:CATA:1,2012-01-05T11:00:00Z,30.3085,-88.1395,12.35,1111122 
DISL,ioos:station:DISL:CATA:1,2012-01-05T11:30:00Z,30.3085,-88.1395,12.87,1111122 
DISL,ioos:station:DISL:CATA:1,2012-01-05T12:00:00Z,30.3085,-88.1395,13.24,1111122 
DISL,ioos:station:DISL:CATA:1,2012-01-05T12:30:00Z,30.3085,-88.1395,12.89,1111122 
DISL,ioos:station:DISL:CATA:1,2012-01-05T13:00:00Z,30.3085,-88.1395,12.33,1111122 
DISL,ioos:station:DISL:CATA:1,2012-01-05T13:30:00Z,30.3085,-88.1395,12.06,1111122 
DISL,ioos:station:DISL:CATA:1,2012-01-05T14:00:00Z,30.3085,-88.1395,11.86,1111122 
DISL,ioos:station:DISL:CATA:1,2012-01-05T14:30:00Z,30.3085,-88.1395,12.23,1111122 
DISL,ioos:station:DISL:CATA:1,2012-01-05T15:00:00Z,30.3085,-88.1395,12.51,1111122 
DISL,ioos:station:DISL:CATA:1,2012-01-05T15:30:00Z,30.3085,-88.1395,12.46,1111122 
DISL,ioos:station:DISL:CATA:1,2012-01-05T16:00:00Z,30.3085,-88.1395,12.01,1111122 
DISL,ioos:station:DISL:CATA:1,2012-01-05T16:30:00Z,30.3085,-88.1395,12.21,1111122 
DISL,ioos:station:DISL:CATA:1,2012-01-05T17:00:00Z,30.3085,-88.1395,12.31,1111122 
DISL,ioos:station:DISL:CATA:1,2012-01-05T17:30:00Z,30.3085,-88.1395,12.72,1111122 
DISL,ioos:station:DISL:CATA:1,2012-01-05T18:00:00Z,30.3085,-88.1395,13.06,1111122 
DISL,ioos:station:DISL:CATA:1,2012-01-05T18:30:00Z,30.3085,-88.1395,13.44,1111122 
DISL,ioos:station:DISL:CATA:1,2012-01-05T19:00:00Z,30.3085,-88.1395,13.68,1111122 
DISL,ioos:station:DISL:CATA:1,2012-01-05T19:30:00Z,30.3085,-88.1395,14.3,1111122 
DISL,ioos:station:DISL:CATA:1,2012-01-05T20:00:00Z,30.3085,-88.1395,14.46,1111122 
DISL,ioos:station:DISL:CATA:1,2012-01-05T20:30:00Z,30.3085,-88.1395,14.74,1111122 
DISL,ioos:station:DISL:CATA:1,2012-01-05T21:00:00Z,30.3085,-88.1395,14.74,1111122 
DISL,ioos:station:DISL:CATA:1,2012-01-05T21:30:00Z,30.3085,-88.1395,14.85,1111122 
DISL,ioos:station:DISL:CATA:1,2012-01-05T22:00:00Z,30.3085,-88.1395,15.13,1111122 
DISL,ioos:station:DISL:CATA:1,2012-01-05T22:30:00Z,30.3085,-88.1395,15.16,1111122 
DISL,ioos:station:DISL:CATA:1,2012-01-05T23:00:00Z,30.3085,-88.1395,15.16,1111122 
DISL,ioos:station:DISL:CATA:1,2012-01-05T23:30:00Z,30.3085,-88.1395,15.34,1111122 
DISL,ioos:station:DISL:CATA:1,2012-01-06T00:00:00Z,30.3085,-88.1395,14.9,1111122 
DISL,ioos:station:DISL:CATA:1,2012-01-06T00:30:00Z,30.3085,-88.1395,14.5,1111122 
DISL,ioos:station:DISL:CATA:1,2012-01-06T01:00:00Z,30.3085,-88.1395,14.26,1111122 
DISL,ioos:station:DISL:CATA:1,2012-01-06T01:30:00Z,30.3085,-88.1395,14.15,1111122 
DISL,ioos:station:DISL:CATA:1,2012-01-06T02:00:00Z,30.3085,-88.1395,14.19,1111122 
DISL,ioos:station:DISL:CATA:1,2012-01-06T02:30:00Z,30.3085,-88.1395,14.02,1111122 
DISL,ioos:station:DISL:CATA:1,2012-01-06T03:00:00Z,30.3085,-88.1395,13.91,1111122 
DISL,ioos:station:DISL:CATA:1,2012-01-06T03:30:00Z,30.3085,-88.1395,14.32,1111122 
DISL,ioos:station:DISL:CATA:1,2012-01-06T04:00:00Z,30.3085,-88.1395,14.19,1111122 
DISL,ioos:station:DISL:CATA:1,2012-01-06T04:30:00Z,30.3085,-88.1395,14.08,1111122 
DISL,ioos:station:DISL:CATA:1,2012-01-06T05:00:00Z,30.3085,-88.1395,13.88,1111122 
DISL,ioos:station:DISL:CATA:1,2012-01-06T05:30:00Z,30.3085,-88.1395,13.4,1111122 
DISL,ioos:station:DISL:CATA:1,2012-01-06T06:00:00Z,30.3085,-88.1395,12.06,1111122 
DISL,ioos:station:DISL:CATA:1,2012-01-06T06:30:00Z,30.3085,-88.1395,12.11,1111122 
DISL,ioos:station:DISL:CATA:1,2012-01-06T07:00:00Z,30.3085,-88.1395,11.94,1111122 
DISL,ioos:station:DISL:CATA:1,2012-01-06T07:30:00Z,30.3085,-88.1395,11.63,1111122 
DISL,ioos:station:DISL:CATA:1,2012-01-06T08:00:00Z,30.3085,-88.1395,11.12,1111122 
DISL,ioos:station:DISL:CATA:1,2012-01-06T08:30:00Z,30.3085,-88.1395,11.08,1111122 
DISL,ioos:station:DISL:CATA:1,2012-01-06T09:00:00Z,30.3085,-88.1395,11.18,1111122 
DISL,ioos:station:DISL:CATA:1,2012-01-06T09:30:00Z,30.3085,-88.1395,11.01,1111122 
DISL,ioos:station:DISL:CATA:1,2012-01-06T10:00:00Z,30.3085,-88.1395,10.6,1111122 
DISL,ioos:station:DISL:CATA:1,2012-01-06T10:30:00Z,30.3085,-88.1395,10.46,1111122 
DISL,ioos:station:DISL:CATA:1,2012-01-06T11:00:00Z,30.3085,-88.1395,10.39,1111122 
DISL,ioos:station:DISL:CATA:1,2012-01-06T11:30:00Z,30.3085,-88.1395,10.46,1111122 
DISL,ioos:station:DISL:CATA:1,2012-01-06T12:00:00Z,30.3085,-88.1395,10.57,1111122 
DISL,ioos:station:DISL:CATA:1,2012-01-06T12:30:00Z,30.3085,-88.1395,9.95,1111122 
DISL,ioos:station:DISL:CATA:1,2012-01-06T13:00:00Z,30.3085,-88.1395,9.91,1111122 
DISL,ioos:station:DISL:CATA:1,2012-01-06T13:30:00Z,30.3085,-88.1395,9.88,1111122 
DISL,ioos:station:DISL:CATA:1,2012-01-06T14:00:00Z,30.3085,-88.1395,9.91,1111122 
DISL,ioos:station:DISL:CATA:1,2012-01-06T14:30:00Z,30.3085,-88.1395,10.02,1111122 
DISL,ioos:station:DISL:CATA:1,2012-01-06T15:00:00Z,30.3085,-88.1395,10.43,1111122 
DISL,ioos:station:DISL:CATA:1,2012-01-06T15:30:00Z,30.3085,-88.1395,11.87,1111122 
DISL,ioos:station:DISL:CATA:1,2012-01-06T16:00:00Z,30.3085,-88.1395,11.27,1111122 
DISL,ioos:station:DISL:CATA:1,2012-01-06T16:30:00Z,30.3085,-88.1395,11.27,1111122 
DISL,ioos:station:DISL:CATA:1,2012-01-06T17:00:00Z,30.3085,-88.1395,11.34,1111122 
DISL,ioos:station:DISL:CATA:1,2012-01-06T17:30:00Z,30.3085,-88.1395,11.68,1111122 
DISL,ioos:station:DISL:CATA:1,2012-01-06T18:00:00Z,30.3085,-88.1395,11.65,1111122 
DISL,ioos:station:DISL:CATA:1,2012-01-06T18:30:00Z,30.3085,-88.1395,12.11,1111122 
DISL,ioos:station:DISL:CATA:1,2012-01-06T19:00:00Z,30.3085,-88.1395,12.86,1111122 
DISL,ioos:station:DISL:CATA:1,2012-01-06T19:30:00Z,30.3085,-88.1395,13.47,1111122 
DISL,ioos:station:DISL:CATA:1,2012-01-06T20:00:00Z,30.3085,-88.1395,14.58,1111122 
DISL,ioos:station:DISL:CATA:1,2012-01-06T20:30:00Z,30.3085,-88.1395,14.22,1111122 
DISL,ioos:station:DISL:CATA:1,2012-01-06T21:00:00Z,30.3085,-88.1395,14.84,1111122 
DISL,ioos:station:DISL:CATA:1,2012-01-06T21:30:00Z,30.3085,-88.1395,14.74,1111122 
DISL,ioos:station:DISL:CATA:1,2012-01-06T22:00:00Z,30.3085,-88.1395,15.27,1111122 
DISL,ioos:station:DISL:CATA:1,2012-01-06T22:30:00Z,30.3085,-88.1395,15.68,1111122 
DISL,ioos:station:DISL:CATA:1,2012-01-06T23:00:00Z,30.3085,-88.1395,15.44,1111122 
DISL,ioos:station:DISL:CATA:1,2012-01-06T23:30:00Z,30.3085,-88.1395,15.55,1111122 
DISL,ioos:station:DISL:CATA:1,2012-01-07T00:00:00Z,30.3085,-88.1395,15.14,1111122 